Location: Albany
(35.0000°S, 118.0000°E)
Time: 17:30:56
(UTC-04:00)

Cosmos 1626 - Visible Passes

Search period start: 24 April 2014 00:00
Search period end: 04 May 2014 00:00
Orbit: 519 x 525 km, 82.5° (Epoch: 24 April)

Date Brightness Start Highest point End Pass type
(mag) Time Alt. Az. Time Alt. Az. Time Alt. Az.
24 Apr 2.1 07:14:56 10° N 07:18:49 88° W 07:19:44 51° S visible
25 Apr 2.1 07:01:49 10° N 07:05:41 78° E 07:09:08 13° S visible
26 Apr 2.1 06:48:42 10° N 06:52:32 65° E 06:56:27 10° SSE visible
27 Apr 2.3 06:35:36 10° N 06:39:23 55° E 06:43:14 10° SSE visible
27 Apr 2.2 18:10:28 10° S 18:14:24 75° W 18:18:16 10° N visible
28 Apr 2.5 06:22:31 10° NNE 06:26:14 46° E 06:30:00 10° SSE visible
28 Apr 2.2 17:57:16 10° S 18:01:13 89° W 18:05:06 10° N visible
29 Apr 2.7 06:09:26 10° NNE 06:13:03 39° E 06:16:44 10° SSE visible
29 Apr 5.6 07:47:51 10° W 07:49:04 11° WSW 07:50:18 10° SW visible
29 Apr 2.4 17:44:05 10° S 17:48:01 77° E 17:51:54 10° N visible
30 Apr 2.9 05:56:23 10° NNE 05:59:53 33° E 06:03:25 10° SSE visible
30 Apr 5.5 07:33:56 10° WNW 07:35:49 13° WSW 07:37:42 10° SW visible
30 Apr 2.7 17:30:54 10° S 17:34:49 65° E 17:38:39 10° NNE visible
01 May 5.3 07:20:12 10° WNW 07:22:32 15° WSW 07:24:54 10° SW visible
01 May 3.0 17:17:43 10° S 17:21:35 54° E 17:25:22 10° NNE visible
02 May 5.2 07:06:35 10° WNW 07:09:16 18° WSW 07:11:58 10° SSW visible
02 May 3.3 17:04:32 10° S 17:08:19 45° E 17:12:03 10° NNE visible
03 May 5.0 06:53:01 10° NW 06:55:58 20° WSW 06:58:58 10° SSW visible
03 May 3.7 16:51:22 10° S 16:55:03 38° E 16:58:41 10° NNE visible
